Time,TemperatureF,DewpointF,PressureIn,WindDirection,WindDirectionDegrees,WindSpeedMPH,WindSpeedGustMPH,Humidity,HourlyPrecipIn,Conditions,Clouds,dailyrainin,SoftwareType,DateUTC
2013-04-18 00:01:00,63.4,57.8,30.16,NNE,26,5.0,5.0,82,0.00,,---,0.00,VWS V14.01,2013-04-18 04:01:00,
2013-04-18 00:06:00,63.1,57.5,30.16,ENE,61,0.0,6.0,82,0.00,,---,0.00,VWS V14.01,2013-04-18 04:06:00,
2013-04-18 00:11:00,62.9,57.7,30.16,ENE,61,1.0,6.0,83,0.00,,---,0.00,VWS V14.01,2013-04-18 04:11:00,
2013-04-18 00:16:00,62.8,57.6,30.16,NNE,24,2.0,6.0,83,0.00,,---,0.00,VWS V14.01,2013-04-18 04:16:00,
2013-04-18 00:21:00,62.8,57.6,30.16,ESE,106,2.0,6.0,83,0.00,,---,0.00,VWS V14.01,2013-04-18 04:21:00,
2013-04-18 00:26:00,62.9,58.0,30.16,NNW,340,1.0,6.0,84,0.00,,---,0.00,VWS V14.01,2013-04-18 04:26:00,
2013-04-18 00:31:00,63.0,57.8,30.16,NE,49,2.0,3.0,83,0.00,,---,0.00,VWS V14.01,2013-04-18 04:31:00,
2013-04-18 00:36:00,63.3,58.1,30.16,East,95,0.0,4.0,83,0.00,,---,0.00,VWS V14.01,2013-04-18 04:36:00,
2013-04-18 00:41:00,63.4,58.2,30.16,East,94,0.0,4.0,83,0.00,,---,0.00,VWS V14.01,2013-04-18 04:41:00,
2013-04-18 00:46:00,63.5,58.2,30.15,East,94,0.0,4.0,83,0.00,,---,0.00,VWS V14.01,2013-04-18 04:46:00,
2013-04-18 00:51:00,63.7,58.5,30.15,East,94,0.0,4.0,83,0.00,,---,0.00,VWS V14.01,2013-04-18 04:51:00,
2013-04-18 00:56:00,63.7,58.5,30.15,East,94,0.0,4.0,83,0.00,,---,0.00,VWS V14.01,2013-04-18 04:56:00,
2013-04-18 01:01:00,63.7,58.5,30.15,East,94,0.0,0.0,83,0.00,,---,0.00,VWS V14.01,2013-04-18 05:01:00,
2013-04-18 01:06:00,63.6,58.3,30.15,East,94,1.0,2.0,83,0.00,,---,0.00,VWS V14.01,2013-04-18 05:06:00,
2013-04-18 01:11:00,63.3,58.1,30.16,East,92,0.0,2.0,83,0.00,,---,0.00,VWS V14.01,2013-04-18 05:11:00,
2013-04-18 01:16:00,63.2,57.6,30.16,East,93,0.0,2.0,82,0.00,,---,0.00,VWS V14.01,2013-04-18 05:16:00,
2013-04-18 01:21:00,63.1,57.5,30.16,East,93,0.0,2.0,82,0.00,,---,0.00,VWS V14.01,2013-04-18 05:21:00,
2013-04-18 01:26:00,63.0,57.4,30.16,East,93,0.0,2.0,82,0.00,,---,0.00,VWS V14.01,2013-04-18 05:26:00,
2013-04-18 01:31:00,62.8,57.6,30.16,East,92,2.0,3.0,83,0.00,,---,0.00,VWS V14.01,2013-04-18 05:31:00,
2013-04-18 01:36:00,62.8,57.6,30.16,East,92,0.0,3.0,83,0.00,,---,0.00,VWS V14.01,2013-04-18 05:36:00,
2013-04-18 01:41:00,62.7,57.5,30.16,East,92,2.0,3.0,83,0.00,,---,0.00,VWS V14.01,2013-04-18 05:41:00,
2013-04-18 01:46:00,62.7,57.5,30.16,NE,39,3.0,4.0,83,0.00,,---,0.00,VWS V14.01,2013-04-18 05:46:00,
2013-04-18 01:51:00,62.7,57.5,30.15,NNE,27,3.0,6.0,83,0.00,,---,0.00,VWS V14.01,2013-04-18 05:51:00,
2013-04-18 01:56:00,62.7,57.5,30.16,NNE,30,0.0,6.0,83,0.00,,---,0.00,VWS V14.01,2013-04-18 05:56:00,
2013-04-18 02:01:00,62.7,57.5,30.16,NNE,30,0.0,1.0,83,0.00,,---,0.00,VWS V14.01,2013-04-18 06:01:00,
2013-04-18 02:06:00,62.7,57.5,30.15,ENE,59,2.0,3.0,83,0.00,,---,0.00,VWS V14.01,2013-04-18 06:06:00,
2013-04-18 02:11:00,62.7,57.5,30.15,ESE,108,1.0,4.0,83,0.00,,---,0.00,VWS V14.01,2013-04-18 06:11:00,
2013-04-18 02:16:00,62.7,57.5,30.16,ESE,107,1.0,4.0,83,0.00,,---,0.00,VWS V14.01,2013-04-18 06:16:00,
2013-04-18 02:21:00,62.8,57.6,30.15,East,82,2.0,4.0,83,0.00,,---,0.00,VWS V14.01,2013-04-18 06:21:00,
2013-04-18 02:27:00,62.8,57.6,30.14,East,82,0.0,4.0,83,0.00,,---,0.00,VWS V14.01,2013-04-18 06:27:00,
2013-04-18 02:31:00,62.7,57.5,30.14,East,82,1.0,1.0,83,0.00,,---,0.00,VWS V14.01,2013-04-18 06:31:00,
2013-04-18 02:36:00,62.7,57.5,30.13,East,82,0.0,2.0,83,0.00,,---,0.00,VWS V14.01,2013-04-18 06:36:00,
2013-04-18 02:41:00,62.6,57.4,30.13,East,82,0.0,2.0,83,0.00,,---,0.00,VWS V14.01,2013-04-18 06:41:00,
2013-04-18 02:46:00,62.4,57.2,30.13,NE,45,4.0,4.0,83,0.00,,---,0.00,VWS V14.01,2013-04-18 06:46:00,
2013-04-18 02:51:00,62.2,57.0,30.14,NE,38,2.0,5.0,83,0.00,,---,0.00,VWS V14.01,2013-04-18 06:51:00,
2013-04-18 02:56:00,62.1,57.2,30.14,NE,52,0.0,5.0,84,0.00,,---,0.00,VWS V14.01,2013-04-18 06:56:00,
2013-04-18 03:02:00,61.9,57.0,30.13,ENE,57,1.0,2.0,84,0.00,,---,0.00,VWS V14.01,2013-04-18 07:02:00,
2013-04-18 03:07:00,61.8,57.2,30.13,East,81,1.0,3.0,85,0.00,,---,0.00,VWS V14.01,2013-04-18 07:07:00,
2013-04-18 03:12:00,61.7,57.2,30.13,East,80,1.0,3.0,85,0.00,,---,0.00,VWS V14.01,2013-04-18 07:12:00,
2013-04-18 03:17:00,61.5,57.0,30.13,East,80,1.0,3.0,85,0.00,,---,0.00,VWS V14.01,2013-04-18 07:17:00,
2013-04-18 03:21:00,61.3,56.8,30.13,East,80,0.0,3.0,85,0.00,,---,0.00,VWS V14.01,2013-04-18 07:21:00,
2013-04-18 03:26:00,61.1,56.9,30.12,East,80,1.0,3.0,86,0.00,,---,0.00,VWS V14.01,2013-04-18 07:26:00,
2013-04-18 03:31:00,61.1,56.9,30.12,East,80,0.0,1.0,86,0.00,,---,0.00,VWS V14.01,2013-04-18 07:31:00,
2013-04-18 03:36:00,61.1,57.2,30.13,East,80,0.0,1.0,87,0.00,,---,0.00,VWS V14.01,2013-04-18 07:36:00,
2013-04-18 03:42:00,61.1,57.2,30.13,East,80,0.0,1.0,87,0.00,,---,0.00,VWS V14.01,2013-04-18 07:42:00,
2013-04-18 03:47:00,61.1,57.2,30.13,East,82,1.0,3.0,87,0.00,,---,0.00,VWS V14.01,2013-04-18 07:47:00,
2013-04-18 03:52:00,61.1,57.2,30.13,East,82,0.0,3.0,87,0.00,,---,0.00,VWS V14.01,2013-04-18 07:52:00,
2013-04-18 03:57:00,61.1,57.2,30.13,East,82,0.0,3.0,87,0.00,,---,0.00,VWS V14.01,2013-04-18 07:57:00,
2013-04-18 04:02:00,61.2,57.3,30.13,East,82,2.0,2.0,87,0.00,,---,0.00,VWS V14.01,2013-04-18 08:02:00,
2013-04-18 04:07:00,61.4,57.5,30.13,East,88,2.0,4.0,87,0.00,,---,0.00,VWS V14.01,2013-04-18 08:07:00,
2013-04-18 04:12:00,61.6,57.7,30.12,East,93,1.0,4.0,87,0.00,,---,0.00,VWS V14.01,2013-04-18 08:12:00,
2013-04-18 04:17:00,61.6,57.7,30.13,East,92,0.0,4.0,87,0.00,,---,0.00,VWS V14.01,2013-04-18 08:17:00,
2013-04-18 04:21:00,61.6,57.7,30.13,East,93,0.0,4.0,87,0.00,,---,0.00,VWS V14.01,2013-04-18 08:21:00,
2013-04-18 04:26:00,61.6,57.7,30.14,East,93,0.0,4.0,87,0.00,,---,0.00,VWS V14.01,2013-04-18 08:26:00,
2013-04-18 04:31:00,61.5,57.6,30.13,East,93,0.0,1.0,87,0.00,,---,0.00,VWS V14.01,2013-04-18 08:31:00,
2013-04-18 04:37:00,61.6,57.7,30.12,East,90,2.0,4.0,87,0.00,,---,0.00,VWS V14.01,2013-04-18 08:37:00,
2013-04-18 04:42:00,61.5,57.3,30.12,East,90,0.0,4.0,86,0.00,,---,0.00,VWS V14.01,2013-04-18 08:42:00,
2013-04-18 04:47:00,61.4,57.5,30.12,East,90,0.0,4.0,87,0.00,,---,0.00,VWS V14.01,2013-04-18 08:47:00,
2013-04-18 04:52:00,61.3,57.4,30.12,East,90,0.0,4.0,87,0.00,,---,0.00,VWS V14.01,2013-04-18 08:52:00,
2013-04-18 04:56:00,61.3,57.4,30.12,NNE,14,0.0,4.0,87,0.00,,---,0.00,VWS V14.01,2013-04-18 08:56:00,
2013-04-18 05:01:00,61.3,57.4,30.12,NNE,14,0.0,1.0,87,0.00,,---,0.00,VWS V14.01,2013-04-18 09:01:00,
2013-04-18 05:06:00,61.1,57.2,30.12,NNE,14,0.0,1.0,87,0.00,,---,0.00,VWS V14.01,2013-04-18 09:06:00,
2013-04-18 05:11:00,60.8,56.9,30.12,NNE,14,0.0,1.0,87,0.00,,---,0.00,VWS V14.01,2013-04-18 09:11:00,
2013-04-18 05:16:00,60.5,56.6,30.12,NNE,14,0.0,1.0,87,0.00,,---,0.00,VWS V14.01,2013-04-18 09:16:00,
2013-04-18 05:21:00,60.3,56.7,30.13,NNE,14,1.0,1.0,88,0.00,,---,0.00,VWS V14.01,2013-04-18 09:21:00,
2013-04-18 05:26:00,60.2,56.6,30.13,NNE,14,0.0,2.0,88,0.00,,---,0.00,VWS V14.01,2013-04-18 09:26:00,
2013-04-18 05:31:00,60.1,56.5,30.13,NNE,14,0.0,0.0,88,0.00,,---,0.00,VWS V14.01,2013-04-18 09:31:00,
2013-04-18 05:36:00,59.9,56.7,30.13,NNE,14,0.0,0.0,89,0.00,,---,0.00,VWS V14.01,2013-04-18 09:36:00,
2013-04-18 05:41:00,59.8,56.6,30.13,NNE,14,0.0,1.0,89,0.00,,---,0.00,VWS V14.01,2013-04-18 09:41:00,
2013-04-18 05:46:00,59.6,56.4,30.13,NNE,14,0.0,1.0,89,0.00,,---,0.00,VWS V14.01,2013-04-18 09:46:00,
2013-04-18 05:51:00,59.0,55.8,30.13,NNE,14,0.0,1.0,89,0.00,,---,0.00,VWS V14.01,2013-04-18 09:51:00,
2013-04-18 05:56:00,59.0,55.8,30.13,NNE,14,0.0,1.0,89,0.00,,---,0.00,VWS V14.01,2013-04-18 09:56:00,
2013-04-18 06:01:00,58.7,55.5,30.13,NNE,14,0.0,0.0,89,0.00,,---,0.00,VWS V14.01,2013-04-18 10:01:00,
2013-04-18 06:07:00,58.4,55.5,30.13,NNE,14,0.0,0.0,90,0.00,,---,0.00,VWS V14.01,2013-04-18 10:07:00,
2013-04-18 06:12:00,58.2,55.3,30.13,NNE,14,0.0,0.0,90,0.00,,---,0.00,VWS V14.01,2013-04-18 10:12:00,
2013-04-18 06:17:00,58.0,55.1,30.13,NNE,14,0.0,0.0,90,0.00,,---,0.00,VWS V14.01,2013-04-18 10:17:00,
2013-04-18 06:22:00,57.7,54.8,30.13,NNE,14,0.0,0.0,90,0.00,,---,0.00,VWS V14.01,2013-04-18 10:22:00,
2013-04-18 06:27:00,57.5,54.6,30.14,NNE,14,0.0,0.0,90,0.00,,---,0.00,VWS V14.01,2013-04-18 10:27:00,
2013-04-18 06:31:00,57.3,54.7,30.14,NNE,14,0.0,0.0,91,0.00,,---,0.00,VWS V14.01,2013-04-18 10:31:00,
2013-04-18 06:36:00,57.2,54.6,30.14,NNE,14,0.0,1.0,91,0.00,,---,0.00,VWS V14.01,2013-04-18 10:36:00,
2013-04-18 06:41:00,57.0,54.4,30.14,NNE,14,1.0,2.0,91,0.00,,---,0.00,VWS V14.01,2013-04-18 10:41:00,
2013-04-18 06:47:00,57.2,54.6,30.15,NNE,14,0.0,2.0,91,0.00,,---,0.00,VWS V14.01,2013-04-18 10:47:00,
2013-04-18 06:52:00,57.4,55.1,30.15,NNE,14,0.0,3.0,92,0.00,,---,0.00,VWS V14.01,2013-04-18 10:52:00,
2013-04-18 06:57:00,57.6,55.3,30.15,South,173,2.0,3.0,92,0.00,,---,0.00,VWS V14.01,2013-04-18 10:57:00,
2013-04-18 07:01:00,57.9,55.6,30.15,South,173,0.0,0.0,92,0.00,,---,0.00,VWS V14.01,2013-04-18 11:01:00,
2013-04-18 07:06:00,58.1,55.8,30.15,South,173,1.0,2.0,92,0.00,,---,0.00,VWS V14.01,2013-04-18 11:06:00,
2013-04-18 07:11:00,58.3,56.0,30.15,South,173,0.0,2.0,92,0.00,,---,0.00,VWS V14.01,2013-04-18 11:11:00,
2013-04-18 07:16:00,58.5,56.2,30.14,South,173,0.0,2.0,92,0.00,,---,0.00,VWS V14.01,2013-04-18 11:16:00,
2013-04-18 07:21:00,58.4,56.1,30.14,South,173,0.0,2.0,92,0.00,,---,0.00,VWS V14.01,2013-04-18 11:21:00,
2013-04-18 07:26:00,58.5,56.2,30.14,South,173,0.0,2.0,92,0.00,,---,0.00,VWS V14.01,2013-04-18 11:26:00,
2013-04-18 07:31:00,58.6,56.3,30.14,South,173,0.0,1.0,92,0.00,,---,0.00,VWS V14.01,2013-04-18 11:31:00,
2013-04-18 07:36:00,58.8,56.5,30.15,WSW,257,1.0,3.0,92,0.00,,---,0.00,VWS V14.01,2013-04-18 11:36:00,
2013-04-18 07:41:00,59.0,56.7,30.15,WSW,257,2.0,3.0,92,0.00,,---,0.00,VWS V14.01,2013-04-18 11:41:00,
2013-04-18 07:46:00,59.0,56.7,30.15,WSW,257,1.0,3.0,92,0.00,,---,0.00,VWS V14.01,2013-04-18 11:46:00,
2013-04-18 07:51:00,59.1,56.8,30.15,WSW,257,1.0,3.0,92,0.00,,---,0.00,VWS V14.01,2013-04-18 11:51:00,
2013-04-18 07:56:00,59.6,57.3,30.15,WSW,257,0.0,3.0,92,0.00,,---,0.00,VWS V14.01,2013-04-18 11:56:00,
2013-04-18 08:01:00,60.0,57.4,30.15,WSW,257,0.0,1.0,91,0.00,,---,0.00,VWS V14.01,2013-04-18 12:01:00,
2013-04-18 08:07:00,60.5,57.9,30.15,WSW,257,0.0,1.0,91,0.00,,---,0.00,VWS V14.01,2013-04-18 12:07:00,
2013-04-18 08:12:00,60.9,58.3,30.15,WSW,257,0.0,2.0,91,0.00,,---,0.00,VWS V14.01,2013-04-18 12:12:00,
2013-04-18 08:17:00,61.4,58.8,30.16,WSW,257,1.0,2.0,91,0.00,,---,0.00,VWS V14.01,2013-04-18 12:17:00,
2013-04-18 08:22:00,61.7,58.7,30.16,WSW,257,0.0,2.0,90,0.00,,---,0.00,VWS V14.01,2013-04-18 12:22:00,
2013-04-18 08:27:00,62.0,59.0,30.16,WSW,257,0.0,2.0,90,0.00,,---,0.00,VWS V14.01,2013-04-18 12:27:00,
2013-04-18 08:32:00,62.3,59.0,30.16,WSW,257,0.0,1.0,89,0.00,,---,0.00,VWS V14.01,2013-04-18 12:32:00,
2013-04-18 08:37:00,62.5,59.2,30.16,WSW,257,0.0,2.0,89,0.00,,---,0.00,VWS V14.01,2013-04-18 12:37:00,
2013-04-18 08:42:00,62.7,59.1,30.16,WSW,257,0.0,2.0,88,0.00,,---,0.00,VWS V14.01,2013-04-18 12:42:00,
2013-04-18 08:47:00,62.9,59.3,30.16,WSW,257,0.0,2.0,88,0.00,,---,0.00,VWS V14.01,2013-04-18 12:47:00,
2013-04-18 08:52:00,63.0,59.1,30.17,WSW,257,0.0,2.0,87,0.00,,---,0.00,VWS V14.01,2013-04-18 12:52:00,
2013-04-18 08:57:00,63.0,59.1,30.17,WSW,257,0.0,2.0,87,0.00,,---,0.00,VWS V14.01,2013-04-18 12:57:00,
2013-04-18 09:02:00,63.0,59.1,30.17,WSW,257,0.0,0.0,87,0.00,,---,0.00,VWS V14.01,2013-04-18 13:02:00,
2013-04-18 09:07:00,63.2,59.3,30.17,WSW,257,0.0,1.0,87,0.00,,---,0.00,VWS V14.01,2013-04-18 13:07:00,
2013-04-18 09:12:00,63.4,59.5,30.16,WSW,257,0.0,2.0,87,0.00,,---,0.00,VWS V14.01,2013-04-18 13:12:00,
2013-04-18 09:17:00,63.8,59.5,30.16,WSW,257,0.0,2.0,86,0.00,,---,0.00,VWS V14.01,2013-04-18 13:17:00,
2013-04-18 09:22:00,63.9,59.3,30.16,WSW,257,0.0,2.0,85,0.00,,---,0.00,VWS V14.01,2013-04-18 13:22:00,
2013-04-18 09:27:00,64.0,59.4,30.16,WSW,257,0.0,2.0,85,0.00,,---,0.00,VWS V14.01,2013-04-18 13:27:00,
2013-04-18 09:32:00,64.0,59.4,30.16,WSW,257,0.0,1.0,85,0.00,,---,0.00,VWS V14.01,2013-04-18 13:32:00,
2013-04-18 09:37:00,64.0,59.4,30.15,WSW,257,0.0,2.0,85,0.00,,---,0.00,VWS V14.01,2013-04-18 13:37:00,
2013-04-18 09:42:00,64.0,59.4,30.15,WSW,257,0.0,2.0,85,0.00,,---,0.00,VWS V14.01,2013-04-18 13:42:00,
2013-04-18 09:47:00,64.0,59.4,30.16,WSW,257,1.0,2.0,85,0.00,,---,0.00,VWS V14.01,2013-04-18 13:47:00,
2013-04-18 09:52:00,64.2,59.3,30.15,WSW,258,1.0,3.0,84,0.00,,---,0.00,VWS V14.01,2013-04-18 13:52:00,
2013-04-18 09:57:00,64.2,59.3,30.16,WSW,257,0.0,3.0,84,0.00,,---,0.00,VWS V14.01,2013-04-18 13:57:00,
2013-04-18 10:02:00,64.3,59.7,30.16,WSW,252,0.0,2.0,85,0.00,,---,0.00,VWS V14.01,2013-04-18 14:02:00,
2013-04-18 10:07:00,64.4,59.8,30.16,WSW,252,0.0,2.0,85,0.00,,---,0.00,VWS V14.01,2013-04-18 14:07:00,
2013-04-18 10:12:00,64.5,59.6,30.16,WSW,252,1.0,2.0,84,0.00,,---,0.00,VWS V14.01,2013-04-18 14:12:00,
2013-04-18 10:17:00,64.5,59.9,30.16,WSW,252,0.0,2.0,85,0.00,,---,0.00,VWS V14.01,2013-04-18 14:17:00,
2013-04-18 10:22:00,64.6,60.0,30.16,WSW,252,0.0,2.0,85,0.00,,---,0.00,VWS V14.01,2013-04-18 14:22:00,
2013-04-18 10:27:00,64.6,60.0,30.16,WSW,252,0.0,4.0,85,0.00,,---,0.00,VWS V14.01,2013-04-18 14:27:00,
2013-04-18 10:32:00,64.5,59.9,30.16,WSW,252,0.0,2.0,85,0.00,,---,0.00,VWS V14.01,2013-04-18 14:32:00,
2013-04-18 10:37:00,64.6,60.0,30.16,WSW,252,2.0,4.0,85,0.00,,---,0.00,VWS V14.01,2013-04-18 14:37:00,
2013-04-18 10:42:00,64.5,59.9,30.16,WSW,241,1.0,5.0,85,0.00,,---,0.00,VWS V14.01,2013-04-18 14:42:00,
2013-04-18 10:47:00,64.5,59.9,30.15,WSW,242,0.0,5.0,85,0.00,,---,0.00,VWS V14.01,2013-04-18 14:47:00,
2013-04-18 10:52:00,64.6,60.3,30.15,WSW,242,0.0,5.0,86,0.00,,---,0.00,VWS V14.01,2013-04-18 14:52:00,
2013-04-18 10:57:00,64.5,60.2,30.15,WSW,242,0.0,5.0,86,0.01,,---,0.01,VWS V14.01,2013-04-18 14:57:00,
2013-04-18 11:02:00,64.3,60.3,30.16,WSW,242,0.0,1.0,87,0.01,,---,0.01,VWS V14.01,2013-04-18 15:02:00,
2013-04-18 11:06:00,63.9,60.0,30.16,WSW,242,0.0,1.0,87,0.01,,---,0.01,VWS V14.01,2013-04-18 15:06:00,
2013-04-18 11:12:00,63.8,60.2,30.16,WSW,242,0.0,1.0,88,0.01,,---,0.01,VWS V14.01,2013-04-18 15:12:00,
2013-04-18 11:17:00,63.8,60.5,30.16,WSW,242,0.0,1.0,89,0.01,,---,0.01,VWS V14.01,2013-04-18 15:17:00,
2013-04-18 11:21:00,63.8,60.5,30.16,WSW,242,0.0,1.0,89,0.01,,---,0.01,VWS V14.01,2013-04-18 15:21:00,
2013-04-18 11:26:00,63.9,60.3,30.16,WSW,242,0.0,1.0,88,0.01,,---,0.01,VWS V14.01,2013-04-18 15:26:00,
2013-04-18 11:31:00,64.0,60.4,30.16,WSW,241,0.0,1.0,88,0.01,,---,0.01,VWS V14.01,2013-04-18 15:31:00,
2013-04-18 11:37:00,64.5,61.2,30.15,WSW,241,0.0,1.0,89,0.01,,---,0.01,VWS V14.01,2013-04-18 15:37:00,
2013-04-18 11:42:00,64.7,61.1,30.15,WSW,242,0.0,1.0,88,0.01,,---,0.01,VWS V14.01,2013-04-18 15:42:00,
2013-04-18 11:47:00,65.1,61.5,30.15,SW,215,1.0,3.0,88,0.01,,---,0.01,VWS V14.01,2013-04-18 15:47:00,
2013-04-18 11:52:00,65.1,61.1,30.15,SSW,211,1.0,3.0,87,0.01,,---,0.01,VWS V14.01,2013-04-18 15:52:00,
2013-04-18 11:57:00,65.1,61.1,30.15,SSW,211,0.0,3.0,87,0.01,,---,0.01,VWS V14.01,2013-04-18 15:57:00,
2013-04-18 12:02:00,65.0,61.0,30.15,SSW,211,0.0,2.0,87,0.00,,---,0.01,VWS V14.01,2013-04-18 16:02:00,
2013-04-18 12:07:00,65.0,61.0,30.15,South,178,1.0,2.0,87,0.00,,---,0.01,VWS V14.01,2013-04-18 16:07:00,
2013-04-18 12:12:00,65.1,61.1,30.14,SE,126,2.0,3.0,87,0.00,,---,0.01,VWS V14.01,2013-04-18 16:12:00,
2013-04-18 12:17:00,65.2,61.2,30.14,SE,126,0.0,3.0,87,0.00,,---,0.01,VWS V14.01,2013-04-18 16:17:00,
2013-04-18 12:22:00,65.6,61.6,30.13,SE,126,1.0,3.0,87,0.00,,---,0.01,VWS V14.01,2013-04-18 16:22:00,
2013-04-18 12:27:00,65.9,61.9,30.13,SE,126,0.0,3.0,87,0.00,,---,0.01,VWS V14.01,2013-04-18 16:27:00,
2013-04-18 12:32:00,66.4,62.1,30.12,SE,126,0.0,0.0,86,0.00,,---,0.01,VWS V14.01,2013-04-18 16:32:00,
2013-04-18 12:37:00,67.2,62.2,30.12,SE,126,2.0,4.0,84,0.00,,---,0.01,VWS V14.01,2013-04-18 16:37:00,
2013-04-18 12:42:00,67.9,62.2,30.11,ESE,119,2.0,5.0,82,0.00,,---,0.01,VWS V14.01,2013-04-18 16:42:00,
2013-04-18 12:46:00,68.5,62.5,30.11,ESE,115,1.0,5.0,81,0.00,,---,0.01,VWS V14.01,2013-04-18 16:46:00,
2013-04-18 12:51:00,69.6,63.2,30.11,SE,142,2.0,5.0,80,0.00,,---,0.01,VWS V14.01,2013-04-18 16:51:00,
2013-04-18 12:56:00,70.6,63.4,30.11,SSW,196,1.0,5.0,78,0.00,,---,0.01,VWS V14.01,2013-04-18 16:56:00,
2013-04-18 13:01:00,71.9,64.3,30.10,SW,218,2.0,4.0,77,0.00,,---,0.01,VWS V14.01,2013-04-18 17:01:00,
2013-04-18 13:06:00,72.6,64.6,30.09,NW,309,5.0,5.0,76,0.00,,---,0.01,VWS V14.01,2013-04-18 17:06:00,
2013-04-18 13:11:00,72.1,63.8,30.10,SSW,207,0.0,7.0,75,0.00,,---,0.01,VWS V14.01,2013-04-18 17:11:00,
2013-04-18 13:17:00,72.4,64.4,30.09,West,281,0.0,7.0,76,0.00,,---,0.01,VWS V14.01,2013-04-18 17:17:00,
2013-04-18 13:22:00,73.6,64.0,30.09,SSW,194,3.0,11.0,72,0.00,,---,0.01,VWS V14.01,2013-04-18 17:22:00,
2013-04-18 13:27:00,74.2,63.8,30.09,SSW,200,9.0,13.0,70,0.00,,---,0.01,VWS V14.01,2013-04-18 17:27:00,
2013-04-18 13:32:00,74.0,64.0,30.09,West,265,3.0,9.0,71,0.00,,---,0.01,VWS V14.01,2013-04-18 17:32:00,
2013-04-18 13:37:00,73.8,64.2,30.09,SSW,211,0.0,9.0,72,0.00,,---,0.01,VWS V14.01,2013-04-18 17:37:00,
2013-04-18 13:42:00,74.0,64.0,30.08,SSW,211,7.0,11.0,71,0.00,,---,0.01,VWS V14.01,2013-04-18 17:42:00,
2013-04-18 13:47:00,74.3,63.1,30.08,SW,227,4.0,11.0,68,0.00,,---,0.01,VWS V14.01,2013-04-18 17:47:00,
2013-04-18 13:52:00,74.6,63.3,30.08,SW,234,12.0,15.0,68,0.00,,---,0.01,VWS V14.01,2013-04-18 17:52:00,
2013-04-18 13:57:00,75.1,62.5,30.08,South,180,15.0,20.0,65,0.00,,---,0.01,VWS V14.01,2013-04-18 17:57:00,
2013-04-18 14:02:00,75.2,62.6,30.08,SSW,207,4.0,17.0,65,0.00,,---,0.01,VWS V14.01,2013-04-18 18:02:00,
2013-04-18 14:07:00,75.3,62.7,30.07,SSE,163,6.0,18.0,65,0.00,,---,0.01,VWS V14.01,2013-04-18 18:07:00,
2013-04-18 14:12:00,75.6,62.6,30.07,WSW,246,13.0,18.0,64,0.00,,---,0.01,VWS V14.01,2013-04-18 18:12:00,
2013-04-18 14:17:00,76.2,63.6,30.07,SW,226,5.0,18.0,65,0.00,,---,0.01,VWS V14.01,2013-04-18 18:17:00,
2013-04-18 14:22:00,76.4,63.3,30.07,SW,227,6.0,18.0,64,0.00,,---,0.01,VWS V14.01,2013-04-18 18:22:00,
2013-04-18 14:27:00,76.4,62.4,30.07,SSW,207,3.0,18.0,62,0.00,,---,0.01,VWS V14.01,2013-04-18 18:27:00,
2013-04-18 14:32:00,75.6,61.7,30.07,South,179,7.0,19.0,62,0.00,,---,0.01,VWS V14.01,2013-04-18 18:32:00,
2013-04-18 14:37:00,74.9,61.5,30.07,South,169,12.0,19.0,63,0.00,,---,0.01,VWS V14.01,2013-04-18 18:37:00,
2013-04-18 14:42:00,74.2,61.2,30.07,SSE,156,10.0,24.0,64,0.00,,---,0.01,VWS V14.01,2013-04-18 18:42:00,
2013-04-18 14:47:00,74.2,61.2,30.07,South,171,5.0,24.0,64,0.00,,---,0.01,VWS V14.01,2013-04-18 18:47:00,
2013-04-18 14:52:00,74.7,62.6,30.06,SSW,202,6.0,24.0,66,0.00,,---,0.01,VWS V14.01,2013-04-18 18:52:00,
2013-04-18 14:57:00,75.5,62.5,30.06,SSW,209,6.0,24.0,64,0.00,,---,0.01,VWS V14.01,2013-04-18 18:57:00,
2013-04-18 15:02:00,76.0,62.5,30.06,South,188,6.0,19.0,63,0.00,,---,0.01,VWS V14.01,2013-04-18 19:02:00,
2013-04-18 15:07:00,75.7,60.8,30.05,South,186,13.0,20.0,60,0.00,,---,0.01,VWS V14.01,2013-04-18 19:07:00,
2013-04-18 15:12:00,76.0,61.1,30.05,South,181,14.0,20.0,60,0.00,,---,0.01,VWS V14.01,2013-04-18 19:12:00,
2013-04-18 15:17:00,75.9,61.5,30.05,SSW,204,7.0,20.0,61,0.00,,---,0.01,VWS V14.01,2013-04-18 19:17:00,
2013-04-18 15:22:00,76.1,61.2,30.05,South,183,6.0,20.0,60,0.00,,---,0.01,VWS V14.01,2013-04-18 19:22:00,
2013-04-18 15:27:00,75.9,61.0,30.05,South,188,12.0,20.0,60,0.00,,---,0.01,VWS V14.01,2013-04-18 19:27:00,
2013-04-18 15:32:00,75.6,61.2,30.05,SW,217,5.0,11.0,61,0.00,,---,0.01,VWS V14.01,2013-04-18 19:32:00,
2013-04-18 15:37:00,75.8,62.8,30.05,South,180,5.0,14.0,64,0.00,,---,0.01,VWS V14.01,2013-04-18 19:37:00,
2013-04-18 15:42:00,75.9,62.4,30.04,SSW,192,10.0,15.0,63,0.00,,---,0.01,VWS V14.01,2013-04-18 19:42:00,
2013-04-18 15:47:00,75.9,61.0,30.04,SSW,204,7.0,20.0,60,0.00,,---,0.01,VWS V14.01,2013-04-18 19:47:00,
2013-04-18 15:52:00,75.7,61.3,30.04,South,187,9.0,20.0,61,0.00,,---,0.01,VWS V14.01,2013-04-18 19:52:00,
2013-04-18 15:57:00,75.5,62.0,30.04,SE,145,11.0,20.0,63,0.00,,---,0.01,VWS V14.01,2013-04-18 19:57:00,
2013-04-18 16:02:00,74.9,61.5,30.04,SSE,155,3.0,13.0,63,0.00,,---,0.01,VWS V14.01,2013-04-18 20:02:00,
2013-04-18 16:07:00,74.5,61.5,30.04,SSE,164,12.0,13.0,64,0.00,,---,0.01,VWS V14.01,2013-04-18 20:07:00,
2013-04-18 16:12:00,74.5,61.5,30.04,South,185,3.0,16.0,64,0.00,,---,0.01,VWS V14.01,2013-04-18 20:12:00,
2013-04-18 16:17:00,74.4,61.0,30.04,SSE,165,3.0,16.0,63,0.00,,---,0.01,VWS V14.01,2013-04-18 20:17:00,
2013-04-18 16:22:00,74.3,61.3,30.03,SSW,192,6.0,16.0,64,0.00,,---,0.01,VWS V14.01,2013-04-18 20:22:00,
2013-04-18 16:27:00,74.2,60.8,30.03,SE,130,10.0,16.0,63,0.00,,---,0.01,VWS V14.01,2013-04-18 20:27:00,
2013-04-18 16:32:00,74.3,60.5,30.03,SSE,168,7.0,14.0,62,0.00,,---,0.01,VWS V14.01,2013-04-18 20:32:00,
2013-04-18 16:37:00,74.7,60.8,30.03,SSE,167,5.0,15.0,62,0.00,,---,0.01,VWS V14.01,2013-04-18 20:37:00,
2013-04-18 16:42:00,74.7,60.8,30.02,South,172,5.0,16.0,62,0.00,,---,0.01,VWS V14.01,2013-04-18 20:42:00,
2013-04-18 16:47:00,74.7,61.3,30.02,South,179,4.0,16.0,63,0.00,,---,0.01,VWS V14.01,2013-04-18 20:47:00,
2013-04-18 16:52:00,74.8,61.4,30.02,South,173,7.0,16.0,63,0.00,,---,0.01,VWS V14.01,2013-04-18 20:52:00,
2013-04-18 16:57:00,74.9,61.0,30.02,South,179,11.0,16.0,62,0.00,,---,0.01,VWS V14.01,2013-04-18 20:57:00,
2013-04-18 17:02:00,75.2,60.8,30.02,South,184,5.0,14.0,61,0.00,,---,0.01,VWS V14.01,2013-04-18 21:02:00,
2013-04-18 17:07:00,75.2,61.8,30.02,SSE,163,3.0,14.0,63,0.00,,---,0.01,VWS V14.01,2013-04-18 21:07:00,
2013-04-18 17:12:00,75.4,61.5,30.02,SSE,153,9.0,14.0,62,0.00,,---,0.01,VWS V14.01,2013-04-18 21:12:00,
2013-04-18 17:17:00,75.2,60.8,30.02,South,179,5.0,14.0,61,0.00,,---,0.01,VWS V14.01,2013-04-18 21:17:00,
2013-04-18 17:22:00,75.1,60.8,30.01,SSE,157,6.0,14.0,61,0.00,,---,0.01,VWS V14.01,2013-04-18 21:22:00,
2013-04-18 17:27:00,75.1,60.8,30.02,SSE,155,3.0,15.0,61,0.00,,---,0.01,VWS V14.01,2013-04-18 21:27:00,
2013-04-18 17:32:00,75.1,60.8,30.01,South,171,11.0,12.0,61,0.00,,---,0.01,VWS V14.01,2013-04-18 21:32:00,
2013-04-18 17:37:00,74.6,60.3,30.01,SE,136,9.0,19.0,61,0.00,,---,0.01,VWS V14.01,2013-04-18 21:37:00,
2013-04-18 17:42:00,74.1,60.3,30.01,South,191,6.0,19.0,62,0.00,,---,0.01,VWS V14.01,2013-04-18 21:42:00,
2013-04-18 17:47:00,74.0,60.2,30.01,SSE,168,10.0,19.0,62,0.00,,---,0.01,VWS V14.01,2013-04-18 21:47:00,
2013-04-18 17:52:00,74.2,60.4,30.01,SSE,168,6.0,19.0,62,0.00,,---,0.01,VWS V14.01,2013-04-18 21:52:00,
2013-04-18 17:57:00,74.5,60.2,30.00,South,183,12.0,19.0,61,0.00,,---,0.01,VWS V14.01,2013-04-18 21:57:00,
2013-04-18 18:02:00,74.3,59.5,30.00,ESE,121,9.0,17.0,60,0.00,,---,0.01,VWS V14.01,2013-04-18 22:02:00,
2013-04-18 18:07:00,74.2,59.9,30.00,South,179,15.0,21.0,61,0.00,,---,0.01,VWS V14.01,2013-04-18 22:07:00,
2013-04-18 18:12:00,73.9,60.1,30.01,SSE,168,6.0,23.0,62,0.00,,---,0.01,VWS V14.01,2013-04-18 22:12:00,
2013-04-18 18:17:00,73.9,60.1,30.00,SE,141,6.0,23.0,62,0.00,,---,0.01,VWS V14.01,2013-04-18 22:17:00,
2013-04-18 18:22:00,74.1,59.8,30.00,SSE,167,10.0,23.0,61,0.00,,---,0.01,VWS V14.01,2013-04-18 22:22:00,
2013-04-18 18:27:00,73.9,59.6,30.00,SSE,160,3.0,23.0,61,0.00,,---,0.01,VWS V14.01,2013-04-18 22:27:00,
2013-04-18 18:32:00,73.7,59.4,30.00,SSW,211,18.0,18.0,61,0.00,,---,0.01,VWS V14.01,2013-04-18 22:32:00,
2013-04-18 18:37:00,73.5,58.8,30.00,South,184,6.0,18.0,60,0.00,,---,0.01,VWS V14.01,2013-04-18 22:37:00,
2013-04-18 18:42:00,73.4,58.7,30.00,South,188,11.0,18.0,60,0.00,,---,0.01,VWS V14.01,2013-04-18 22:42:00,
2013-04-18 18:47:00,73.1,58.4,30.00,SSE,163,12.0,18.0,60,0.00,,---,0.01,VWS V14.01,2013-04-18 22:47:00,
2013-04-18 18:52:00,73.1,58.4,30.00,SSE,156,4.0,18.0,60,0.00,,---,0.01,VWS V14.01,2013-04-18 22:52:00,
2013-04-18 18:57:00,73.0,58.3,30.00,South,177,5.0,18.0,60,0.00,,---,0.01,VWS V14.01,2013-04-18 22:57:00,
2013-04-18 19:02:00,73.0,58.3,30.00,SSW,195,6.0,12.0,60,0.00,,---,0.01,VWS V14.01,2013-04-18 23:02:00,
2013-04-18 19:07:00,73.2,58.0,30.00,South,180,3.0,12.0,59,0.00,,---,0.01,VWS V14.01,2013-04-18 23:07:00,
2013-04-18 19:12:00,73.2,58.0,30.00,SSE,165,3.0,12.0,59,0.00,,---,0.01,VWS V14.01,2013-04-18 23:12:00,
2013-04-18 19:17:00,73.1,57.9,30.00,SE,139,9.0,12.0,59,0.00,,---,0.01,VWS V14.01,2013-04-18 23:17:00,
2013-04-18 19:22:00,72.8,57.7,30.00,SSW,194,6.0,12.0,59,0.00,,---,0.01,VWS V14.01,2013-04-18 23:22:00,
2013-04-18 19:27:00,72.6,57.5,30.00,SSE,164,12.0,12.0,59,0.00,,---,0.01,VWS V14.01,2013-04-18 23:27:00,
2013-04-18 19:32:00,72.5,57.4,30.00,SSW,204,8.0,8.0,59,0.00,,---,0.01,VWS V14.01,2013-04-18 23:32:00,
2013-04-18 19:37:00,72.3,57.2,30.00,South,171,6.0,11.0,59,0.00,,---,0.01,VWS V14.01,2013-04-18 23:37:00,
2013-04-18 19:42:00,72.4,56.8,30.00,SSE,153,5.0,14.0,58,0.00,,---,0.01,VWS V14.01,2013-04-18 23:42:00,
2013-04-18 19:47:00,72.4,56.8,30.00,South,175,9.0,14.0,58,0.00,,---,0.01,VWS V14.01,2013-04-18 23:47:00,
2013-04-18 19:52:00,72.3,57.2,30.00,SSE,153,4.0,14.0,59,0.00,,---,0.01,VWS V14.01,2013-04-18 23:52:00,
2013-04-18 19:57:00,71.8,56.7,30.00,South,186,5.0,14.0,59,0.00,,---,0.01,VWS V14.01,2013-04-18 23:57:00,
2013-04-18 20:02:00,71.4,56.8,29.99,SE,143,3.0,5.0,60,0.00,,---,0.01,VWS V14.01,2013-04-19 00:02:00,
2013-04-18 20:07:00,71.3,56.7,29.99,South,182,2.0,11.0,60,0.00,,---,0.01,VWS V14.01,2013-04-19 00:07:00,
2013-04-18 20:12:00,71.3,56.7,29.99,South,172,11.0,11.0,60,0.00,,---,0.01,VWS V14.01,2013-04-19 00:12:00,
2013-04-18 20:17:00,71.4,56.8,29.99,SSE,161,5.0,14.0,60,0.00,,---,0.01,VWS V14.01,2013-04-19 00:17:00,
2013-04-18 20:22:00,71.3,56.7,29.99,SSE,163,11.0,14.0,60,0.00,,---,0.01,VWS V14.01,2013-04-19 00:22:00,
2013-04-18 20:27:00,71.5,56.9,29.99,South,171,6.0,14.0,60,0.00,,---,0.01,VWS V14.01,2013-04-19 00:27:00,
2013-04-18 20:32:00,71.5,56.9,29.99,South,188,3.0,10.0,60,0.00,,---,0.01,VWS V14.01,2013-04-19 00:32:00,
2013-04-18 20:37:00,71.7,56.6,29.99,South,181,7.0,15.0,59,0.00,,---,0.01,VWS V14.01,2013-04-19 00:37:00,
2013-04-18 20:42:00,71.5,56.9,29.99,SSE,163,5.0,15.0,60,0.00,,---,0.01,VWS V14.01,2013-04-19 00:42:00,
2013-04-18 20:47:00,71.3,56.7,29.99,South,187,8.0,15.0,60,0.00,,---,0.01,VWS V14.01,2013-04-19 00:47:00,
2013-04-18 20:52:00,71.1,56.5,29.99,South,188,4.0,15.0,60,0.00,,---,0.01,VWS V14.01,2013-04-19 00:52:00,
2013-04-18 20:57:00,71.0,56.4,29.99,SE,132,9.0,15.0,60,0.00,,---,0.01,VWS V14.01,2013-04-19 00:57:00,
2013-04-18 21:02:00,70.9,56.8,29.99,SE,129,5.0,6.0,61,0.00,,---,0.01,VWS V14.01,2013-04-19 01:02:00,
2013-04-18 21:07:00,70.7,56.6,29.99,South,181,4.0,10.0,61,0.00,,---,0.01,VWS V14.01,2013-04-19 01:07:00,
2013-04-18 21:12:00,70.7,56.6,29.98,South,171,5.0,14.0,61,0.00,,---,0.01,VWS V14.01,2013-04-19 01:12:00,
2013-04-18 21:17:00,70.8,56.7,29.98,SSE,161,5.0,14.0,61,0.00,,---,0.01,VWS V14.01,2013-04-19 01:17:00,
2013-04-18 21:22:00,70.7,56.6,29.98,South,187,7.0,14.0,61,0.00,,---,0.01,VWS V14.01,2013-04-19 01:22:00,
2013-04-18 21:27:00,70.6,56.5,29.98,South,190,9.0,15.0,61,0.00,,---,0.01,VWS V14.01,2013-04-19 01:27:00,
2013-04-18 21:32:00,70.8,56.2,29.98,SSE,166,7.0,16.0,60,0.00,,---,0.01,VWS V14.01,2013-04-19 01:32:00,
2013-04-18 21:37:00,70.9,56.3,29.98,South,175,5.0,16.0,60,0.00,,---,0.01,VWS V14.01,2013-04-19 01:37:00,
2013-04-18 21:42:00,71.0,56.0,29.98,SSE,151,10.0,16.0,59,0.00,,---,0.01,VWS V14.01,2013-04-19 01:42:00,
2013-04-18 21:47:00,71.0,56.0,29.98,South,187,7.0,16.0,59,0.00,,---,0.01,VWS V14.01,2013-04-19 01:47:00,
2013-04-18 21:52:00,70.9,55.9,29.98,South,185,16.0,16.0,59,0.00,,---,0.01,VWS V14.01,2013-04-19 01:52:00,
2013-04-18 21:57:00,71.0,56.0,29.98,SW,214,4.0,16.0,59,0.00,,---,0.01,VWS V14.01,2013-04-19 01:57:00,
2013-04-18 22:02:00,70.8,55.8,29.98,South,186,10.0,14.0,59,0.00,,---,0.01,VWS V14.01,2013-04-19 02:02:00,
2013-04-18 22:07:00,70.8,56.2,29.98,South,189,5.0,14.0,60,0.00,,---,0.01,VWS V14.01,2013-04-19 02:07:00,
2013-04-18 22:12:00,70.8,56.2,29.98,SW,227,3.0,14.0,60,0.00,,---,0.01,VWS V14.01,2013-04-19 02:12:00,
2013-04-18 22:16:00,70.8,56.2,29.98,South,190,12.0,16.0,60,0.00,,---,0.01,VWS V14.01,2013-04-19 02:16:00,
2013-04-18 22:21:00,70.7,56.6,29.98,SSW,195,13.0,16.0,61,0.00,,---,0.01,VWS V14.01,2013-04-19 02:21:00,
2013-04-18 22:26:00,70.5,56.9,29.98,South,191,6.0,16.0,62,0.00,,---,0.01,VWS V14.01,2013-04-19 02:26:00,
2013-04-18 22:31:00,70.5,56.9,29.97,SSW,192,5.0,9.0,62,0.00,,---,0.01,VWS V14.01,2013-04-19 02:31:00,
2013-04-18 22:36:00,70.4,56.8,29.97,South,191,3.0,10.0,62,0.00,,---,0.01,VWS V14.01,2013-04-19 02:36:00,
2013-04-18 22:41:00,70.2,57.0,29.97,SSW,194,3.0,10.0,63,0.00,,---,0.01,VWS V14.01,2013-04-19 02:41:00,
2013-04-18 22:46:00,70.1,56.9,29.97,South,188,5.0,10.0,63,0.00,,---,0.01,VWS V14.01,2013-04-19 02:46:00,
2013-04-18 22:51:00,70.0,57.3,29.97,SSW,196,4.0,12.0,64,0.00,,---,0.01,VWS V14.01,2013-04-19 02:51:00,
2013-04-18 22:56:00,70.3,57.6,29.96,South,183,9.0,12.0,64,0.00,,---,0.01,VWS V14.01,2013-04-19 02:56:00,
2013-04-18 23:01:00,70.4,57.7,29.97,South,180,4.0,10.0,64,0.00,,---,0.01,VWS V14.01,2013-04-19 03:01:00,
2013-04-18 23:06:00,70.3,57.6,29.96,South,175,5.0,12.0,64,0.00,,---,0.01,VWS V14.01,2013-04-19 03:06:00,
2013-04-18 23:11:00,70.3,58.0,29.96,South,178,4.0,17.0,65,0.00,,---,0.01,VWS V14.01,2013-04-19 03:11:00,
2013-04-18 23:16:00,70.0,57.7,29.96,South,179,10.0,17.0,65,0.00,,---,0.01,VWS V14.01,2013-04-19 03:16:00,
2013-04-18 23:21:00,70.0,58.1,29.96,South,169,5.0,17.0,66,0.00,,---,0.01,VWS V14.01,2013-04-19 03:21:00,
2013-04-18 23:26:00,70.1,58.2,29.96,SW,220,5.0,17.0,66,0.00,,---,0.01,VWS V14.01,2013-04-19 03:26:00,
2013-04-18 23:31:00,69.9,58.0,29.96,SSW,192,0.0,5.0,66,0.00,,---,0.01,VWS V14.01,2013-04-19 03:31:00,
2013-04-18 23:36:00,69.8,57.9,29.95,SSW,197,5.0,6.0,66,0.00,,---,0.01,VWS V14.01,2013-04-19 03:36:00,
2013-04-18 23:41:00,69.4,58.0,29.95,South,183,3.0,10.0,67,0.00,,---,0.01,VWS V14.01,2013-04-19 03:41:00,
2013-04-18 23:46:00,69.0,58.0,29.94,South,180,6.0,10.0,68,0.00,,---,0.01,VWS V14.01,2013-04-19 03:46:00,
2013-04-18 23:51:00,69.2,57.8,29.94,South,181,15.0,17.0,67,0.00,,---,0.01,VWS V14.01,2013-04-19 03:51:00,
2013-04-18 23:56:00,69.9,58.0,29.93,SSE,165,8.0,17.0,66,0.00,,---,0.01,VWS V14.01,2013-04-19 03:56:00,